EW0393 Weather Reports


Display with metric or nautical units.
time (UTC)temp
F
wind
direction
speed
MPH
gust
MPH
rain 1hr
in
rain 24hr
in
rain mn
in
humidity
%
barometer
mb
20260507220903 42 0 0.0 0.0 0.00 0.00 0.00 86 1016.3
20260507220004 42 0 0.0 0.0 0.00 0.00 0.00 86 1016.4
20260507215619 42 0 0.0 0.0 0.00 0.00 0.00 86 1016.6
20260507214503 42 0 0.0 0.0 0.00 0.00 0.00 86 1016.4
20260507213603 43 0 0.0 0.0 0.00 0.00 0.00 85 1016.5
20260507212921 43 0 0.0 0.0 0.00 0.00 0.00 85 1016.6
20260507211803 44 0 0.0 0.0 0.00 0.00 0.00 84 1016.5
20260507210903 45 0 0.0 0.0 0.00 0.00 0.00 83 1016.4
20260507210004 46 0 0.0 0.0 0.00 0.00 0.00 82 1016.5
20260507205403 46 0 0.0 0.0 0.00 0.00 0.00 82 1016.6
20260507204503 47 0 0.0 0.0 0.00 0.00 0.00 82 1016.5
20260507203603 47 0 0.0 0.0 0.00 0.00 0.00 81 1016.5
20260507202921 48 0 0.0 2.0 0.00 0.00 0.00 81 1016.4
20260507201803 48 122 0.0 2.0 0.00 0.00 0.00 81 1016.2
20260507200903 49 122 0.0 5.0 0.00 0.00 0.00 80 1016.1
20260507200003 50 127 1.0 5.0 0.00 0.00 0.00 80 1016.1
20260507195403 50 134 1.0 5.0 0.00 0.00 0.00 79 1016.1
20260507194503 50 103 0.0 4.0 0.00 0.00 0.00 78 1015.9
20260507193603 51 113 1.0 4.0 0.00 0.00 0.00 77 1015.9
20260507192703 51 133 1.0 8.0 0.00 0.00 0.00 76 1015.7
20260507191803 52 122 2.0 8.0 0.00 0.00 0.00 75 1015.8
20260507190903 53 115 2.0 11.0 0.00 0.00 0.00 74 1015.7
20260507190004 53 110 2.0 11.0 0.00 0.00 0.00 73 1015.7
20260507185621 53 115 3.0 11.0 0.00 0.00 0.00 73 1015.7
20260507184504 53 116 2.0 9.0 0.00 0.00 0.00 73 1015.7
20260507183603 53 133 2.0 9.0 0.00 0.00 0.00 73 1015.7
20260507182703 53 120 2.0 10.0 0.00 0.00 0.00 73 1015.7
20260507181803 53 122 2.0 10.0 0.00 0.00 0.00 72 1015.6
20260507181117 53 125 2.0 10.0 0.00 0.00 0.00 72 1015.6
20260507180004 53 107 2.0 8.0 0.00 0.00 0.00 71 1015.3
20260507175403 53 112 2.0 7.0 0.00 0.00 0.00 71 1015.4
20260507174503 54 120 2.0 7.0 0.00 0.00 0.00 70 1015.4
20260507173603 54 98 2.0 7.0 0.00 0.00 0.00 70 1015.4
20260507172703 54 92 1.0 7.0 0.00 0.00 0.00 70 1015.5
20260507171803 54 100 1.0 8.0 0.00 0.00 0.00 70 1015.6
20260507171118 55 118 2.0 8.0 0.00 0.00 0.00 69 1015.5
20260507170004 55 131 2.0 4.0 0.00 0.00 0.00 68 1015.7
20260507165403 55 124 2.0 9.0 0.00 0.00 0.00 68 1015.7
20260507164503 55 133 3.0 9.0 0.00 0.00 0.00 68 1015.6
20260507163603 55 119 2.0 8.0 0.00 0.00 0.00 68 1015.7
20260507162703 56 126 2.0 6.0 0.00 0.00 0.00 68 1015.8
20260507161803 56 119 2.0 10.0 0.00 0.00 0.00 68 1015.8
20260507160903 56 132 3.0 10.0 0.00 0.00 0.00 67 1015.8
20260507160003 56 122 3.0 9.0 0.00 0.00 0.00 67 1015.7
20260507155617 56 129 3.0 9.0 0.00 0.00 0.00 66 1015.7
20260507154720 57 144 3.0 9.0 0.00 0.00 0.00 67 1015.7
20260507153603 56 139 3.0 10.0 0.00 0.00 0.00 66 1015.8
20260507152703 56 137 3.0 10.0 0.00 0.00 0.00 66 1015.7
20260507151803 56 137 2.0 8.0 0.00 0.00 0.00 66 1015.8
20260507150903 56 122 3.0 8.0 0.00 0.00 0.00 66 1015.7
20260507150004 57 97 2.0 8.0 0.00 0.00 0.00 65 1015.6
20260507145403 57 90 2.0 8.0 0.00 0.00 0.00 65 1015.6
20260507144503 57 102 2.0 7.0 0.00 0.00 0.00 65 1015.6
20260507143603 57 109 2.0 8.0 0.00 0.00 0.00 65 1015.6
20260507142703 58 91 2.0 8.0 0.00 0.00 0.00 64 1015.7
20260507142018 58 76 3.0 8.0 0.00 0.00 0.00 65 1015.7
20260507140903 57 113 3.0 7.0 0.00 0.00 0.00 65 1015.8
20260507140003 58 108 2.0 7.0 0.00 0.00 0.00 63 1015.7
20260507135403 58 93 2.0 7.0 0.00 0.00 0.00 63 1015.8
20260507134503 57 124 2.0 6.0 0.00 0.00 0.00 64 1015.7
20260507133603 58 119 2.0 5.0 0.00 0.00 0.00 64 1015.8
20260507132703 57 121 1.0 6.0 0.00 0.00 0.00 64 1015.9
20260507131803 56 120 2.0 6.0 0.00 0.00 0.00 64 1016.0
20260507131120 56 118 1.0 6.0 0.00 0.00 0.00 64 1015.9
20260507130218 56 137 2.0 5.0 0.00 0.00 0.00 64 1016.0
20260507125403 57 110 2.0 5.0 0.00 0.00 0.00 62 1016.2
20260507124503 57 74 1.0 5.0 0.00 0.00 0.00 63 1016.2
20260507123819 57 66 1.0 9.0 0.00 0.00 0.00 62 1016.1
20260507122922 58 69 3.0 9.0 0.00 0.00 0.00 63 1016.1
20260507121803 57 118 2.0 8.0 0.00 0.00 0.00 63 1016.2
20260507121121 58 94 1.0 8.0 0.00 0.00 0.00 62 1016.3
20260507120004 57 71 3.0 8.0 0.00 0.00 0.00 64 1016.3
20260507115403 57 59 3.0 7.0 0.00 0.00 0.00 65 1016.4
20260507114503 57 63 3.0 6.0 0.00 0.00 0.00 64 1016.3
20260507113603 56 95 2.0 7.0 0.00 0.00 0.00 63 1016.2
20260507112917 57 71 3.0 6.0 0.00 0.00 0.00 64 1016.2
20260507111803 58 58 4.0 9.0 0.00 0.00 0.00 63 1016.3
20260507111117 58 66 4.0 10.0 0.00 0.00 0.00 62 1016.3
20260507110004 59 53 6.0 10.0 0.00 0.00 0.00 62 1016.3
20260507105403 60 62 5.0 11.0 0.00 0.00 0.00 61 1016.3
20260507104504 60 75 5.0 12.0 0.00 0.00 0.00 64 1016.5
20260507103603 60 74 4.0 12.0 0.00 0.00 0.00 60 1016.6
20260507102703 57 69 3.0 9.0 0.00 0.00 0.00 64 1016.6
20260507101803 59 67 3.0 11.0 0.00 0.00 0.00 62 1016.6
20260507100903 61 56 4.0 11.0 0.00 0.00 0.00 61 1016.5
20260507100004 61 60 4.0 11.0 0.00 0.00 0.00 60 1016.4
20260507095403 61 48 4.0 10.0 0.00 0.00 0.00 64 1016.4
20260507094503 57 40 4.0 9.0 0.00 0.00 0.00 66 1016.5
20260507093603 57 38 2.0 6.0 0.00 0.00 0.00 66 1016.5
20260507092703 56 47 2.0 6.0 0.00 0.00 0.00 70 1016.4
20260507092021 54 59 2.0 6.0 0.00 0.00 0.00 70 1016.5
20260507090903 55 75 2.0 7.0 0.00 0.00 0.00 67 1016.5
20260507090004 55 69 2.0 7.0 0.00 0.00 0.00 68 1016.3
20260507085617 54 78 1.0 4.0 0.00 0.00 0.00 71 1016.4
20260507084719 54 111 1.0 5.0 0.00 0.00 0.00 69 1016.3
20260507083603 55 69 2.0 10.0 0.00 0.00 0.00 68 1016.2
20260507082919 56 75 2.0 10.0 0.00 0.00 0.00 66 1016.1
20260507081803 56 66 2.0 10.0 0.00 0.00 0.00 73 1015.9
20260507080903 53 130 1.0 5.0 0.00 0.00 0.00 71 1016.2
20260507080004 52 103 2.0 7.0 0.00 0.00 0.00 74 1016.2
20260507075403 54 84 2.0 7.0 0.00 0.00 0.00 71 1016.1
20260507074503 53 97 2.0 7.0 0.00 0.00 0.00 72 1016.0
20260507073603 52 89 2.0 7.0 0.00 0.00 0.00 75 1015.9
20260507072703 52 63 3.0 9.0 0.00 0.00 0.00 76 1015.7
20260507071803 52 63 3.0 9.0 0.00 0.00 0.00 77 1015.6
20260507070903 51 72 3.0 8.0 0.00 0.00 0.00 78 1015.6
20260507070222 50 79 2.0 7.0 0.00 0.00 0.00 79 1015.7
20260507065403 50 69 3.0 6.0 0.00 0.00 0.00 80 1015.6
20260507064503 49 73 2.0 5.0 0.00 0.00 0.00 82 1015.7
20260507063603 49 59 3.0 5.0 0.00 0.00 0.00 83 1015.6
20260507062703 48 61 2.0 4.0 0.00 0.00 0.00 83 1015.5
20260507062017 48 61 1.0 4.0 0.00 0.00 0.00 84 1015.4
20260507060903 48 60 1.0 3.0 0.00 0.00 0.00 85 1015.6
20260507060003 47 55 0.0 3.0 0.00 0.00 0.00 86 1015.5
20260507055403 47 46 1.0 3.0 0.00 0.00 0.00 86 1015.4
20260507054721 46 46 0.0 3.0 0.00 0.00 0.00 86 1015.3
20260507053603 46 0 0.0 0.0 0.00 0.00 0.00 86 1015.1
20260507052703 46 0 0.0 0.0 0.00 0.00 0.00 86 1015.0
20260507051803 46 0 0.0 0.0 0.00 0.00 0.00 87 1015.0
20260507051120 45 0 0.0 0.0 0.00 0.00 0.00 87 1015.0
20260507050003 45 0 0.0 0.0 0.00 0.00 0.00 87 1015.0
20260507045403 45 0 0.0 0.0 0.00 0.00 0.00 87 1015.0
20260507044717 45 0 0.0 0.0 0.00 0.00 0.00 87 1014.9
20260507043819 45 0 0.0 0.0 0.00 0.00 0.00 86 1014.9
20260507042703 45 0 0.0 0.0 0.00 0.00 0.00 86 1014.9
20260507041803 45 0 0.0 0.0 0.00 0.00 0.00 86 1014.9
20260507040903 45 0 0.0 0.0 0.00 0.00 0.00 86 1014.9
20260507040004 45 0 0.0 0.0 0.00 0.00 0.00 86 1014.8
20260507035403 45 0 0.0 0.0 0.00 0.00 0.00 86 1014.8
20260507034503 45 0 0.0 0.0 0.00 0.00 0.00 86 1014.8
20260507033603 45 0 0.0 0.0 0.00 0.00 0.00 86 1014.8
20260507032917 46 0 0.0 0.0 0.00 0.00 0.00 86 1014.7
20260507031803 46 0 0.0 0.0 0.00 0.00 0.00 86 1014.7
20260507030903 46 0 0.0 0.0 0.00 0.00 0.00 86 1014.8
20260507030003 46 0 0.0 0.0 0.00 0.00 0.00 86 1014.8
20260507025403 46 0 0.0 0.0 0.00 0.00 0.00 86 1014.7
20260507024503 46 0 0.0 0.0 0.00 0.00 0.00 85 1014.8
20260507023603 46 0 0.0 0.0 0.00 0.00 0.00 85 1014.6
20260507022703 46 0 0.0 0.0 0.00 0.00 0.00 85 1014.7
20260507022020 46 0 0.0 0.0 0.00 0.00 0.00 85 1014.7
20260507020903 46 0 0.0 0.0 0.00 0.00 0.00 85 1014.7
20260507020004 46 0 0.0 0.0 0.00 0.00 0.00 85 1014.6
20260507015403 46 0 0.0 0.0 0.00 0.00 0.00 85 1014.5
20260507014719 46 0 0.0 0.0 0.00 0.00 0.00 85 1014.4
20260507013603 46 0 0.0 2.0 0.00 0.00 0.00 85 1014.3
20260507012703 46 46 1.0 2.0 0.00 0.00 0.00 84 1014.3
20260507012021 46 46 1.0 2.0 0.00 0.00 0.00 84 1014.3
20260507010903 46 46 1.0 2.0 0.00 0.00 0.00 84 1014.4
20260507010003 46 46 1.0 3.0 0.00 0.00 0.00 84 1014.5
20260507005403 46 46 1.0 3.0 0.00 0.00 0.00 84 1014.4
20260507004503 47 46 1.0 3.0 0.00 0.00 0.00 84 1014.4
20260507003603 47 46 0.0 3.0 0.00 0.00 0.00 83 1014.4
20260507002703 47 46 0.0 4.0 0.00 0.00 0.00 83 1014.5
20260507002021 47 46 1.0 4.0 0.00 0.00 0.00 83 1014.6
20260507000903 47 42 2.0 4.0 0.00 0.00 0.00 83 1014.7
20260507000004 47 39 2.0 4.0 0.00 0.00 0.00 83 1014.6
20260506235403 47 40 1.0 3.0 0.00 0.00 0.00 83 1014.7
20260506234504 47 45 2.0 5.0 0.00 0.00 0.00 83 1014.6
20260506233603 47 60 2.0 5.0 0.00 0.00 0.00 83 1014.5
20260506232703 48 55 2.0 5.0 0.00 0.00 0.00 82 1014.5
20260506231803 48 58 3.0 6.0 0.00 0.00 0.00 82 1014.4
20260506230903 48 60 3.0 8.0 0.00 0.00 0.00 82 1014.5
20260506230011 48 56 4.0 8.0 0.00 0.00 0.00 82 1014.4
20260506225403 48 53 4.0 8.0 0.00 0.00 0.00 82 1014.4
20260506224721 48 51 4.0 8.0 0.00 0.00 0.00 82 1014.5
20260506223603 48 40 4.0 8.0 0.00 0.00 0.00 82 1014.5
20260506222703 49 50 3.0 8.0 0.00 0.00 0.00 82 1014.4
20260506222018 49 56 4.0 8.0 0.00 0.00 0.00 82 1014.3